Regional Weather Roundup
Issued by NWS Sioux Falls, SD

Home | Current Version | Previous Version | Text Only | Print | Product List | Glossary Off
Versions: 1 2 3 4 5 6 7 8 9 10 11 12 13 14 15 16 17 18 19 20 21 22 23 24 25 26 27 28 29 30 31 32 33 34 35 36 37 38 39 40 41 42 43 44 45 46 47 48 49 50

000
ASUS43 KFSD 211602
RWRFSD

WEATHER ROUNDUP FOR SE SOUTH DAKOTA/SW MINNESOTA/NW IOWA
NATIONAL WEATHER SERVICE SIOUX FALLS SD
1100 AM CDT THU AUG 21 2014

NOTE: "FAIR" INDICATES FEW OR NO CLOUDS BELOW 12,000 FEET WITH NO
SIGNIFICANT WEATHER AND OR OBSTRUCTIONS TO VISIBILITY.


SDZ038>040-050-052>070-211700-
SOUTHEAST SOUTH DAKOTA

CITY           SKY/WX    TMP DP  RH WIND       PRES   REMARKS
CHAMBERLAIN    MOSUNNY   72  65  80 W8        29.85S
HURON          SUNNY     80  68  66 NW10      29.78R
MADISON        PTSUNNY   82  77  83 W7        29.79R
MITCHELL       MOSUNNY   78  72  81 W9        29.80S
SIOUX FALLS    MOSUNNY   82  72  71 W7        29.77R
WINNER         FAIR      77  65  66 N9        29.88S
YANKTON        SUNNY     81  72  74 W9        29.77R
$$

MNZ071-072-080-081-089-090-097-098-211700-
SOUTHWEST MINNESOTA

CITY           SKY/WX    TMP DP  RH WIND       PRES   REMARKS
FAIRMONT       CLOUDY    77  68  73 MISG      29.79R
JACKSON        PTSUNNY   77  70  78 S6        29.78F
LUVERNE        MOSUNNY   82  70  65 SW9       29.78S
MARSHALL       SUNNY     82  72  69 W6        29.74R
MONTEVIDEO     CLOUDY    75  75 100 SW6       29.76R
PIPESTONE      SUNNY     81  73  78 W6        29.78R
REDWOOD FALLS  MOSUNNY   81  73  76 S13       29.74F
TRACY          SUNNY     81  74  79 SW7       29.76R
WINDOM         PTSUNNY   81  72  74 S8        29.76F
WORTHINGTON    PTSUNNY   82  19   9 SW9G17    29.79S
$$

IAZ001>003-012>014-020>022-031-032-NEZ013-014-SDZ071-211700-
NORTHWEST IOWA

CITY           SKY/WX    TMP DP  RH WIND       PRES   REMARKS
CHEROKEE       MOSUNNY   81  72  73 S7        29.82S
DENISON        PTSUNNY   81  70  69 S7        29.82S
ESTHERVILLE    CLOUDY    76  72  87 S20       29.80F
LE MARS        MOSUNNY   82  68  61 SW13      29.81S
ORANGE CITY    MOSUNNY   82  68  61 S12       29.81R
SHELDON        MOSUNNY   81  72  74 S12       29.79R
SIOUX CITY     SUNNY     83  69  62 SW9       29.80S
SPENCER        CLOUDY    81  71  71 S15       29.80F
STORM LAKE     PTSUNNY   79  75  89 S7G13     29.84S
$$

ABBREVIATIONS USED IN REMARKS
   TC - TEMPERATURE IN CELSIUS
  WCI - WIND CHILL INDEX
   HX - HEAT INDEX
  VSB - VISIBILITY




USA.gov is the U.S. government's official web portal to all federal, state and local government web resources and services.